Regional Weather Roundup
Issued by NWS Newport/Morehead, NC

Current Version | Previous Version | Graphics & Text | Print | Product List | Glossary Off
Versions: 1 2 3 4 5 6 7 8 9 10 11 12 13 14 15 16 17 18 19 20 21 22 23 24 25 26 27 28 29 30 31 32 33 34 35 36 37 38 39 40 41 42 43 44 45 46 47 48 49 50
499 ASUS42 KMHX 230913 RWRMHX WEATHER ROUNDUP FOR EASTERN NORTH CAROLINA NATIONAL WEATHER SERVICE NEWPORT/MOREHEAD CITY NC 500 AM EDT THU MAR 23 2017 NOTE: "FAIR" INDICATES FEW OR NO CLOUDS BELOW 12,000 FEET WITH NO SIGNIFICANT WEATHER AND/OR OBSTRUCTIONS TO VISIBILITY NCZ015>017-031-032-045>047-102-103-231000- NORTH COAST CITY SKY/WX TMP DP RH WIND PRES REMARKS EDENTON NOT AVBL ELIZABETH CITY PTCLDY 36 24 62 N7 30.51R KITTY HAWK NOT AVBL MANTEO CLEAR 38 23 55 NE10 30.50R $$ NCZ045>047-081-094-103-104-231000- CENTRAL COAST CITY SKY/WX TMP DP RH WIND PRES REMARKS FRISCO CLEAR 42 23 46 NE14G26 30.45R $$ NCZ095-097-098-100-101-231000- SOUTHERN COAST CITY SKY/WX TMP DP RH WIND PRES REMARKS BEAUFORT CLEAR 38 28 67 N7 30.46R CEDAR ISLAND NOT AVBL JACKSONVILLE CLEAR 36 30 79 N5 30.46R PINEY ISLAND SUNNY N/A N/A N/A NE13 30.46R WILMINGTON CLEAR 35 29 78 NE9 30.44R $$ NCZ011>013-027>030-043-044-078>080-089-090>093-098-231000- COASTAL PLAIN CITY SKY/WX TMP DP RH WIND PRES REMARKS AHOSKIE NOT AVBL CLINTON CLEAR 37 31 77 NE3 30.46S ELIZABETHTOWN CLEAR 37 30 77 CALM 30.44S GOLDSBORO CLEAR 36 27 67 N6 30.46R GREENVILLE CLEAR 28 27 93 N6 30.48S HAVELOCK CLEAR 41 28 60 NE9 30.47 KENANSVILLE CLEAR 32 28 86 NE3 30.46R KINSTON CLEAR 31 27 85 CALM 30.48R NEW BERN CLEAR 33 28 81 VRB3 30.48R RICHLANDS CLEAR 30 27 88 N3 30.46R ROCKY MOUNT CLEAR 32 22 66 CALM 30.50R WASHINGTON CLEAR 32 26 76 NE7 30.48S WHITEVILLE CLEAR 39 29 68 NE7 30.43R $$ AMZ130-135-150-152-154-156-158-170-250-252-270-ANZ085-086-088-633-658-670-231000- MARINE OBSERVATIONS STATION/POSITION TIME TEMP WIND PRES WAVE SWELL AIR SEA DIR/SP/G HT/PER HT/PER (UTC) (F) (DEG/KT/KT) (MB) (FT/S) (FT/S) CHESAPEAKE LIGHT NOT AVBL 64 E VA BEACH 0850 40 49 10/ 23/ 27 1031.2 9/ 8 7/ 8 DUCK 0848 40 48 30/ 18/ 21 1032.0 2 E DUCK 0900 47 N/A 6/ 8 2/11 OREGON INLET 0842 40 51 10/ 10/ 17 1032.3 13E OREGON INLT NOT AVBL HATTERAS CG 0848 43 53 10/ 24/ 28 1030.3 DIAMOND BUOY 0850 46 75 20/ 19/ 25 1030.6 10/11 7/11 CAPE LOOKOUT 0900 43 20/ 14/ 18 1030.7 BEAUFORT LAB 0848 40 52 30/ 6/ 6 1030.3 30 SE NEW RVR IN 0808 49 60/ 19/ 25 1029.7 30 SE NEW RVR IN 0843 64 N/A 6/11 2/11 27 SE WRIGHTSVLE 0808 51 62 90/ 19/ 27 1028.6 5 SE WRIGHTSVLE 0808 49 57 70/ 17/ 29 1029.7 225 S CAPE HAT 0850 61 72 30/ 23/ 27 1024.8 9/11 7/11 41 SE CHARLESTON 0850 60 66 50/ 23/ 29 1025.7 9/ 8 3/10 $$

USA.gov is the U.S. government's official web portal to all federal, state and local government web resources and services.